Regional Weather Roundup
Issued by NWS

Home | Current Version | Previous Version | Graphics & Text | Print | Product List | Glossary On
Versions: 1 2 3 4 5 6 7 8 9 10 11 12 13 14 15 16 17 18 19 20 21 22 23 24 25 26 27 28 29 30 31 32 33 34 35 36 37 38 39 40 41 42 43 44 45 46 47 48 49 50
000
ASUS43 KTOP 161208
RWRKS

WEATHER ROUNDUP FOR KANSAS
NATIONAL WEATHER SERVICE GOODLAND KS
700 AM CDT WED APR 16 2014

NOTE:  "FAIR" INDICATES FEW OR NO CLOUDS BELOW 12,000 FEET WITH NO
SIGNIFICANT WEATHER AND/OR OBSTRUCTIONS TO VISIBILITY.

KSZ001>006-013>018-027>032-041>047-161300-
NORTHWEST KANSAS

CITY           SKY/WX    TMP DP  RH WIND       PRES   REMARKS
GOODLAND       MOCLDY    43  32  65 NW16      29.70R
6HR MIN TEMP:  38; 6HR MAX TEMP:  46;

HAYS           PTCLDY    46  18  31 S21G26    29.68R
HILL CITY      PTCLDY    44  16  32 SW12      29.64R
6HR MIN TEMP:  44; 6HR MAX TEMP:  52;

RUSSELL        MOCLDY    46  19  34 S28G33    29.65S
6HR MIN TEMP:  46; 6HR MAX TEMP:  52;

$$

KSZ061>065-074>080-084>089-161300-
SOUTHWEST KANSAS

CITY           SKY/WX    TMP DP  RH WIND       PRES   REMARKS
DODGE CITY     PTCLDY    44  15  31 S21G28    29.68F
6HR MIN TEMP:  44; 6HR MAX TEMP:  49;

ELKHART          N/A     41  20  43 SW8         N/A
GARDEN CITY    MOCLDY    38  21  50 W9        29.69R
6HR MIN TEMP:  38; 6HR MAX TEMP:  48;

GREAT BEND     PTCLDY    46  18  31 S22G32    29.69F
LIBERAL        PTCLDY    45  14  29 S15       29.71R
PRATT          PTCLDY    43  21  42 S23G35    29.74F
$$

KSZ066>073-081>083-090>101-161300-
SOUTHEAST KANSAS

CITY           SKY/WX    TMP DP  RH WIND       PRES   REMARKS
CHANUTE        MOCLDY    43  29  57 S14       29.98S
6HR MIN TEMP:  43; 6HR MAX TEMP:  48;

COFFEYVILLE    PTCLDY    43  30  60 S10       30.01R
6HR MIN TEMP:  43; 6HR MAX TEMP:  46;

HUTCHINSON     CLEAR     46  23  40 S26G36    29.79F
6HR MIN TEMP:  46; 6HR MAX TEMP:  51;

MEDICINE LODGE   N/A     47  23  38 SE13G22   29.80F
NEWTON         CLEAR     46  19  34 S26G32    29.86S
PARSONS        MOCLDY    45  28  51 S10       30.00F
6HR MIN TEMP:  44; 6HR MAX TEMP:  47;

WICHITA INTL   PTCLDY    46  25  43 S26G32    29.85F
6HR MIN TEMP:  46; 6HR MAX TEMP:  50;

WICHITA JABRA  CLEAR     47  25  42 S25G37    29.86S
6HR MIN TEMP:  46; 6HR MAX TEMP:  50;

WICHITA MCCONL CLEAR     47  24  40 SE26G33   29.87S
WINFIELD       CLEAR     47  26  44 S23G30    29.92S
6HR MIN TEMP:  47; 6HR MAX TEMP:  50;

$$

KSZ007>012-019>026-033>040-048>060-102>105-161300-
NORTHEAST KANSAS

CITY           SKY/WX    TMP DP  RH WIND       PRES   REMARKS
CONCORDIA      MOCLDY    50  21  32 S36G47    29.67F
6HR MIN TEMP:  47; 6HR MAX TEMP:  50;

EMPORIA        CLEAR     44  27  51 S26G37    29.87F
6HR MIN TEMP:  44; 6HR MAX TEMP:  48;

LAWRENCE       CLEAR     45  28  51 S16       29.93R
6HR MIN TEMP:  44; 6HR MAX TEMP:  46;

MANHATTAN      PTCLDY    48  25  40 S17G26    29.81S
6HR MIN TEMP:  47; 6HR MAX TEMP:  50;

OLATHE IND     CLEAR     43  26  51 S22G32    29.94F
6HR MIN TEMP:  42; 6HR MAX TEMP:  45;

OLATHE EXE     CLEAR     41  27  57 S13       29.95S
6HR MIN TEMP:  40; 6HR MAX TEMP:  44;

SALINA         CLEAR     49  22  34 S25G45    29.76S
6HR MIN TEMP:  48; 6HR MAX TEMP:  53;

TOPEKA BILLARD CLEAR     47  27  45 S15G23    29.89S
6HR MIN TEMP:  46; 6HR MAX TEMP:  49;

TOPEKA FORBES  CLEAR     45  27  49 S16G23    29.88S
6HR MIN TEMP:  45; 6HR MAX TEMP:  48;

$$



USA.gov is the U.S. government's official web portal to all federal, state and local government web resources and services.